Tracking 27097 objects as of 29-Mar-2023
HD Live streaming from Space Station
objects crossing your sky now

ARABSAT 2B

Track ARABSAT 2B now!
ARABSAT 2B is classified as:


NORAD ID: 24652
Int'l Code: 1996-063A
Perigee: 36,027.3 km
Apogee: 36,045.2 km
Inclination: 8.0 °
Period: 1,448.5 minutes
Semi major axis: 42407 km
RCS: 3.8888 m2 (large)
Launch date: November 13, 1996
Source: Arab Satellite Communications Organization (AB)
Launch site: FRENCH GUIANA (FRGUI)

Second generation; radio and tv communications to Middle East.
Your satellite tracking list
Your tracking list is empty




NASA's NSSDC Master Catalog

Two Line Element Set (TLE):
1 24652U 96063A   23087.86230167 -.00000276  00000-0  00000-0 0  9992
2 24652   8.0281  58.6820 0002115  12.0319 184.2910  0.99412809 96769
Source of the keplerian elements: AFSPC